{"data":{"norad_id":54061,"epoch":"2026-05-24T21:23:57.669216Z","epoch_age_seconds":81479,"freshness":"FRESH","line1":"1 54061U 22136L   26144.89163969  .00000953  00000+0  77957-4 0  9993","line2":"2 54061  53.2131 326.6463 0001259  89.1100 271.0036 15.08841123198841","mean_motion":15.08841123,"eccentricity":0.0001259,"inclination_deg":53.2131,"raan_deg":326.6463,"arg_perigee_deg":89.11,"mean_anomaly_deg":271.0036,"bstar":7.7957e-5,"rev_number":19884,"period_min":95.43748364552,"perigee_km":538.86899569568,"apogee_km":540.61091711331,"semimajor_km":6917.8769564045,"source":"CELESTRAK","updated_at":"2026-05-25T13:38:17.648657Z"}}